Regional Weather Roundup
Issued by NWS

Home | Current Version | Previous Version | Text Only | Print | Product List | Glossary On
Versions: 1 2 3 4 5 6 7 8 9 10 11 12 13 14 15 16 17 18 19 20 21 22 23 24 25 26 27 28 29 30 31 32 33 34 35 36 37 38 39 40 41 42 43 44 45 46 47 48 49 50
000
ASUS42 KFFC 222010
RWRGA
WEATHER ROUNDUP FOR GEORGIA
NATIONAL WEATHER SERVICE PEACHTREE CITY GA
400 PM EDT FRI SEP 22 2017

NOTE: "FAIR" INDICATES FEW OR NO CLOUDS BELOW 12,000 FEET WITH NO
SIGNIFICANT WEATHER AND/OR OBSTRUCTIONS TO VISIBILITY.

* = USE WITH CAUTION. THE STATIONS MARKED WITH AN ASTERISK MAY NOT
REPORT WEATHER SUCH AS PRECIPITATION, FOG, OR THUNDER AND ARE NOT
QUALITY CONTROLLED BY NWS.

THE REMARK "TC" DENOTES TEMPERATURE READING IN DEGREES CELSIUS.

GAZ001>058-222100-
NORTH GEORGIA

CITY           SKY/WX    TMP DP  RH WIND       PRES   REMARKS
ATLANTA        MOSUNNY   89  64  43 E6        30.02F HX  90
ATHENS         MOSUNNY   89  67  47 N8        30.02F HX  92
CHAMBLEE       SUNNY     88  64  44 VRB3      30.02F
PEACHTREE CITY MOSUNNY   90  67  46 NE6       30.01F HX  93
ROME           SUNNY     89  68  49 CALM      30.00F HX  93
WEST ATLANTA   SUNNY     86  67  52 CALM      30.01F
GAINESVILLE    MOSUNNY   87  64  46 CALM      30.06F
CARTERSVILLE   SUNNY     88  64  44 CALM      30.01F


CITY           SKY/WX    TMP DP  RH WIND       PRES   REMARKS
DALTON*        MOSUNNY   86  66  51 N3        30.03F
LAWRENCEVILLE* MOSUNNY   88  64  45 E8        30.04F
MARIETTA       MOSUNNY   89  65  45 E3        30.02F HX  90
KENNESAW*      SUNNY     88  65  46 E5        30.03F HX  90
CANTON*        SUNNY     90  64  43 CALM      30.05F HX  91
$$

GAZ059>098-102>109-222100-
CENTRAL GEORGIA

CITY           SKY/WX    TMP DP  RH WIND       PRES   REMARKS
AUGUSTA-BUSH   PTSUNNY   80  67  64 NW9       29.99F
AUGUSTA-DANIEL LGT RAIN  74  70  87 NW6       30.01F
COLUMBUS       MOSUNNY   94  64  37 NE8       29.97F HX  95
MACON          SUNNY     90  65  43 MISG      29.98F HX  92
ROBINS AFB     MOSUNNY   89  67  48 NE3       29.97F HX  93


CITY           SKY/WX    TMP DP  RH WIND       PRES   REMARKS
LAGRANGE*      MOSUNNY   90  65  44 CALM      30.00F HX  92
SYLVANIA*      MOSUNNY   89  72  57 CALM      29.99F HX  95
MILLEDGEVILLE* SUNNY     90  66  45 CALM      29.99F HX  92
$$

GAZ099>101-110>166-222100-
SOUTH GEORGIA

CITY           SKY/WX    TMP DP  RH WIND       PRES   REMARKS
SAVANNAH       PTSUNNY   86  68  54 E8        29.98F
VALDOSTA       MOSUNNY   87  68  52 NE9       29.95F HX  90
ALMA           MOSUNNY   88  68  51 E7        29.96F HX  91
ST SIMONS      MOSUNNY   85  74  69 NE14      29.97F HX  92
FT STEWART     MOSUNNY   88  69  52 E9        29.95F HX  92
ALBANY         MOSUNNY   92  67  43 E12       29.98F HX  95
HUNTER AFB     SUNNY     87  72  61 E12       29.95F HX  93
MOODY AFB      MOSUNNY   87  68  51 E5        29.95F HX  91
BRUNSWICK      MOSUNNY   82  70  65 E14       29.98F


CITY           SKY/WX    TMP DP  RH WIND       PRES   REMARKS
BAINBRIDGE*    MOSUNNY   91  72  52 E8        29.95F HX  98
MOULTRIE*      SUNNY     88  64  45 E7        29.97F
VIDALIA*       SUNNY     90  68  48 E9        29.98F HX  93
WAYCROSS*      MOSUNNY   90  65  43 E7        29.96F HX  91
DOUGLAS*       PTSUNNY   88  64  45 E8        29.98F
$$



USA.gov is the U.S. government's official web portal to all federal, state and local government web resources and services.